Location: Audinghen
(50.8518°N, 1.6129°E)
Time: 06:15:01
(UTC+00:00)

Cosmos 2263 Rocket - Pass Details

Date: 07 August 2020
Orbit: 823 x 848 km, 71.0° (Epoch: 23 September)

Event Time Altitude Azimuth Distance (km) Brightness Sun altitude
Exits shadow 02:24:24 - 160° (SSE) 2,927 4.7 -15.7°
Reaches altitude 10° 02:26:02 10° 150° (SSE) 2,423 4.4 -15.6°
Maximum altitude 02:30:10 22° 102° (ESE) 1,736 4.1 -15.2°
Drops below altitude 10° 02:34:19 10° 53° (NE) 2,432 5.9 -14.8°
Sets 02:37:15 0° 39° (NE) 3,370 7.3 -14.5°
